Location: Unspecified
(41.9031°N, 12.4386°E)
Time: 03:06:44
(UTC+02:00)

ISS - Pass Details

Date: 10 July 2020
Orbit: 417 x 421 km, 51.6° (Epoch: 08 July)

Event Time Altitude Azimuth Distance (km) Brightness Sun altitude
Exits shadow 01:52:00 27° 340° (NNW) 834 -1.8 -25.3°
Drops below altitude 10° 01:54:54 10° 39° (NE) 1,498 -0.2 -25.3°
Sets 01:57:12 0° 52° (NE) 2,363 0.8 -25.2°
